This is the latest recevied weather packets stored in our database for station/object N7BTW-13. If no packets are shown the sender has not sent any weather packets the latest 10 day(s).
| Time | Temp. | Humidity | Pressure | Rain* | Wind** | Luminosity | Snow |
|---|---|---|---|---|---|---|---|
| 1777678811 | 25.56° C | 44% | 1014.4 hPa | 0 mm | - | - | - |
| 1777678208 | 26.11° C | 45% | 1014.4 hPa | 0 mm | - | - | - |
| 1777677608 | 26.11° C | 44% | 1014.6 hPa | 0 mm | - | - | - |
| 1777677006 | 26.11° C | 43% | 1014.7 hPa | 0 mm | - | - | - |
| 1777676407 | 26.11° C | 44% | 1014.9 hPa | 0 mm | - | - | - |
| 1777675807 | 25.56° C | 46% | 1015 hPa | 0 mm | - | - | - |
| 1777675209 | 26.11° C | 48% | 1015.1 hPa | 0 mm | - | - | - |
| 1777674609 | 26.11° C | 48% | 1015.2 hPa | 0 mm | - | - | - |
| 1777674008 | 25.56° C | 48% | 1015.3 hPa | 0 mm | - | - | - |
| 1777673408 | 25° C | 50% | 1015.5 hPa | 0 mm | - | - | - |
| 1777672809 | 25° C | 48% | 1015.5 hPa | 0 mm | - | - | - |
| 1777672208 | 25° C | 47% | 1015.6 hPa | 0 mm | - | - | - |
| 1777671608 | 25° C | 49% | 1015.7 hPa | 0 mm | - | - | - |
| 1777671010 | 24.44° C | 49% | 1015.7 hPa | 0 mm | - | - | - |
| 1777670406 | 23.89° C | 49% | 1015.9 hPa | 0 mm | - | - | - |
| 1777669807 | 23.89° C | 50% | 1016 hPa | 0 mm | - | - | - |
| 1777669208 | 23.33° C | 51% | 1016.1 hPa | 0 mm | - | - | - |
| 1777668607 | 23.89° C | 51% | 1016.3 hPa | 0 mm | - | - | - |
| 1777668006 | 23.33° C | 54% | 1016.4 hPa | 0 mm | - | - | - |
| 1777667408 | 23.33° C | 53% | 1016.5 hPa | 0 mm | - | - | - |
| 1777666807 | 22.78° C | 56% | 1016.6 hPa | 0 mm | - | - | - |
| 1777666209 | 22.78° C | 55% | 1016.7 hPa | 0 mm | - | - | - |
| 1777665607 | 22.78° C | 56% | 1016.8 hPa | 0 mm | - | - | - |
| 1777665007 | 21.11° C | 58% | 1016.9 hPa | 0 mm | - | - | - |
| 1777664408 | 21.67° C | 56% | 1017 hPa | 0 mm | - | - | - |
* Rain latest hour (hover to see other rain measurements)
** Current wind speed in m/s (hover to see current wind gust speed)